Location: *
(58.7167°N, 26.1833°E)
Time: 19:30:07
(UTC+00:00)

Meteor 1-23 Rocket - Pass Details

Date: 25 August 2019
Orbit: 838 x 887 km, 81.3° (Epoch: 18 October)

Event Time Altitude Azimuth Distance (km) Brightness Sun altitude
Rises 18:38:52 0° 343° (NNW) 3,486 8.4 -7.9°
Reaches altitude 10° 18:41:20 10° 343° (NNW) 2,537 7.6 -8.2°
Maximum altitude 18:47:06 84° 257° (WSW) 877 4.4 -8.8°
Drops below altitude 10° 18:52:46 10° 169° (S) 2,486 6.2 -9.3°
Enters shadow 18:54:15 - 169° (S) 3,056 6.6 -9.5°
